Ontario, OR

2:18 PM MDT on September 29, 2016 (GMT -0600)
Ontario Municipal

Weather History for KONO - December, 2013

Change the Weather History Date:

Saturday, December 21, 2013

  Actual Average Record
Temperature  
Mean Temperature 25 °F 27 °F  
Max Temperature 30 °F 35 °F 59 °F (1957)
Min Temperature 20 °F 19 °F -20 °F (1990)
Degree Days  
Heating Degree Days 40 38  
Month to date heating degree days 958 768  
Since 1 July heating degree days 2353 2196  
Cooling Degree Days 0 0  
Month to date cooling degree days 0 0  
Year to date cooling degree days 1299 852  
Moisture  
Dew Point 20 °F    
Average Humidity 81    
Maximum Humidity 92    
Minimum Humidity 69    
Precipitation  
Precipitation 0.01 in 0.05 in 0.53 in (2008)
Month to date precipitation 0.44 1.11  
Year to date precipitation 5.27 9.49  
Sea Level Pressure  
Sea Level Pressure 30.03 in    
Wind  
Wind Speed 4 mph (WSW)    
Max Wind Speed 13 mph    
Max Gust Speed 14 mph    
Visibility 8 miles    
Events Snow    
T = Trace of Precipitation, MM = Missing Value Source: NWS Daily Summary

Daily Weather History Graph

Daily Weather History Graph

Search for Another Location

Airport or City:

Trip Planner

Search our weather history database for the weather conditions in past years. The results will help you decide how hot, cold, wet, or windy it might be!

Date:

Astronomy

Dec. 21, 2013 Rise Set
Actual Time 8:19 AM MST 5:12 PM MST
Civil Twilight 7:46 AM MST 5:46 PM MST
Nautical Twilight 7:10 AM MST 6:22 PM MST
Astronomical Twilight 6:34 AM MST 6:57 PM MST
Moon 9:41 PM MST (12/21) 10:40 AM MST (12/21)
Length of Visible Light 9h 59m
Length of Day
8h 53m
Waning Gibbous, 84% of the Moon is Illuminated
Dec 21
Waning Gibbous
Dec 25
Last Quarter
Jan 1
New
Jan 7
First Quarter
Jan 15
Full

Hourly Weather History & Observations

Time (MST) Temp. Windchill Dew Point Humidity Pressure Visibility Wind Dir Wind Speed Gust Speed Precip Events Conditions
12:00 AM 23.0 °F 14.7 °F 19.9 °F 88% 29.84 in 2.0 mi WSW 6.9 mph - 0.00 in Snow Light Snow
12:14 AM 23.0 °F 15.8 °F 19.9 °F 88% 29.85 in 2.5 mi WSW 5.8 mph - 0.00 in Snow Light Snow
12:29 AM 23.0 °F 15.8 °F 19.9 °F 88% 29.85 in 3.0 mi WSW 5.8 mph - 0.00 in Snow Light Snow
12:34 AM 23.0 °F 14.7 °F 19.9 °F 88% 29.85 in 2.0 mi WSW 6.9 mph - 0.00 in Snow Light Snow
12:44 AM 23.0 °F 14.7 °F 19.9 °F 88% 29.85 in 3.0 mi WSW 6.9 mph - 0.00 in Snow Light Snow
12:53 AM 23.0 °F 14.7 °F 19.9 °F 88% 29.94 in 4.0 mi WSW 6.9 mph - 0.00 in Snow Light Snow
1:14 AM 21.9 °F 13.4 °F 19.9 °F 92% 29.85 in 4.0 mi WSW 6.9 mph - 0.00 in Snow Light Snow
1:35 AM 21.9 °F 13.4 °F 19.0 °F 89% 29.85 in 4.0 mi WSW 6.9 mph - 0.01 in Snow Light Snow
1:53 AM 21.9 °F 13.4 °F 19.9 °F 92% 29.93 in 8.0 mi WSW 6.9 mph - 0.01 in   Overcast
2:06 AM 21.9 °F 12.5 °F 19.0 °F 89% 29.85 in 9.0 mi WSW 8.1 mph - N/A   Overcast
2:26 AM 21.0 °F 11.4 °F 18.0 °F 88% 29.86 in 10.0 mi WSW 8.1 mph - N/A   Overcast
2:53 AM 21.0 °F 12.4 °F 18.0 °F 88% 29.94 in 10.0 mi WSW 6.9 mph - N/A   Overcast
3:13 AM 21.0 °F 12.4 °F 18.0 °F 88% 29.86 in 10.0 mi WSW 6.9 mph - N/A   Overcast
3:53 AM 21.9 °F 12.5 °F 19.0 °F 89% 29.96 in 10.0 mi WSW 8.1 mph - N/A   Overcast
4:53 AM 21.9 °F 12.5 °F 18.0 °F 85% 29.97 in 10.0 mi WSW 8.1 mph - N/A   Overcast
5:34 AM 21.9 °F 11.7 °F 19.0 °F 89% 29.90 in 10.0 mi WSW 9.2 mph - N/A   Overcast
5:53 AM 21.9 °F 11.7 °F 19.0 °F 89% 29.99 in 10.0 mi WSW 9.2 mph - N/A   Overcast
6:53 AM 23.0 °F 13.9 °F 19.0 °F 85% 30.02 in 10.0 mi WSW 8.1 mph - N/A   Overcast
7:53 AM 21.9 °F 11.0 °F 19.0 °F 89% 30.05 in 10.0 mi WSW 10.4 mph - N/A   Overcast
8:13 AM 21.0 °F 9.9 °F 18.0 °F 88% 29.97 in 10.0 mi WSW 10.4 mph - N/A   Overcast
8:38 AM 21.0 °F 10.6 °F 17.1 °F 85% 29.99 in 10.0 mi West 9.2 mph - N/A   Overcast
8:53 AM 21.0 °F 12.4 °F 17.1 °F 85% 30.09 in 10.0 mi WSW 6.9 mph - N/A   Overcast
9:53 AM 23.0 °F 13.1 °F 18.0 °F 81% 30.11 in 10.0 mi West 9.2 mph - N/A   Mostly Cloudy
10:53 AM 21.9 °F 11.7 °F 17.1 °F 82% 30.14 in 10.0 mi WSW 9.2 mph - N/A   Clear
11:53 AM 23.0 °F 14.7 °F 17.1 °F 78% 30.15 in 10.0 mi WSW 6.9 mph - N/A   Partly Cloudy
12:53 PM 26.1 °F 20.5 °F 19.9 °F 78% 30.14 in 10.0 mi WSW 4.6 mph - N/A   Clear
1:53 PM 27.0 °F - 21.0 °F 78% 30.15 in 10.0 mi Calm Calm - N/A   Clear
2:53 PM 28.0 °F - 19.9 °F 72% 30.15 in 10.0 mi Calm Calm - N/A   Clear
3:53 PM 26.1 °F - 19.9 °F 78% 30.17 in 10.0 mi Calm Calm - N/A   Overcast
4:53 PM 28.0 °F - 21.9 °F 78% 30.18 in 10.0 mi Calm Calm - N/A   Overcast
5:53 PM 28.0 °F - 23.0 °F 81% 30.19 in 10.0 mi Calm Calm - N/A   Overcast
6:53 PM 28.0 °F - 21.9 °F 78% 30.19 in 10.0 mi Calm Calm - N/A   Mostly Cloudy
7:53 PM 27.0 °F - 21.9 °F 81% 30.20 in 9.0 mi Calm Calm - N/A   Overcast
8:53 PM 27.0 °F 23.0 °F 21.9 °F 81% 30.22 in 7.0 mi East 3.5 mph - N/A   Overcast
9:53 PM 26.1 °F - 23.0 °F 88% 30.22 in 6.0 mi Calm Calm - N/A   Overcast
10:53 PM 28.0 °F - 23.0 °F 81% 30.23 in 4.0 mi Calm Calm - N/A   Haze
11:53 PM 28.0 °F - 23.0 °F 81% 30.24 in 4.0 mi Calm Calm - N/A   Haze